SCP
0 -0 -0 -0 -0 -0 -0 -0 0 0 0 0 -0 -0 0 0 0 0 0 0 0 0 0 0 0 0 1 0 0 0 1 0 0 1 1 1 1 1 1 0 0 0 0 0
0 0 -0 -0 -0 -0 -0 -0 -0 -0 0 -0 0 0 0 0 -0 0 0 0 0 0 0 0 0 0 0 1 0 1 1 1 1 0 1 1 1 1 0 0 0 0 0 0
0 0 -0 -0 -0 -0 -0 -0 -0 -0 -0 -0 -0 -0 0 0 -0 0 -0 0 0 0 0 0 0 0 0 0 1 0 1 0 0 0 0 0 0 0 0 0 0 0 0 0
0 0 0 0 0 0 0 -0 -0 -0 -0 -0 -0 -0 -0 -0 -0 -0 -0 -0 0 0 0 0 0 0 0 0 0 1 1 0 0 0 0 0 0 0 0 0 0 0 0 0
0 0 0 0 0 0 0 0 0 -0 -0 -0 -0 -0 -0 -0 -0 -0 -0 -0 -0 0 0 0 0 0 0 0 0 0 0 1 0 0 0 0 0 0 0 0 0 0 0 0
0 0 0 0 0 0 0 0 0 0 0 0 -0 -0 -0 -0 -0 -0 -0 -0 -0 -0 0 -0 0 0 0 0 0 0 0 0 0 0 0 0 0 0 0 0 0 0 0 0
0 -0 0 0 0 0 0 0 0 0 0 0 0 0 0 -0 -0 0 0 0 -0 0 0 0 0 0 0 0 0 0 0 0 0 0 0 0 0 0 0 0 0 0 0 0
0 0 0 0 0 0 0 0 0 0 0 0 0 0 0 0 0 0 -0 -0 -0 -0 0 -0 0 0 0 0 0 0 0 0 0 0 0 0 0 0 0 0 0 0 0 0
-0 -0 0 0 0 0 0 0 0 0 0 0 0 0 0 0 0 0 0 -0 -0 -0 -0 0 0 0 0 0 0 0 0 0 0 0 0 0 0 0 0 0 0 0 0 0
0 0 0 0 0 0 0 0 0 0 0 0 0 0 0 0 0 0 0 -0 -0 -0 -0 -0 -0 0 0 0 0 0 0 0 0 0 0 0 0 0 0 0 0 0 0 0
0 0 0 0 0 0 0 0 0 0 0 0 0 0 0 0 0 0 0 0 0 0 0 0 0 -0 -0 0 0 0 0 0 0 0 0 0 0 0 0 0 0 0 0 0
-0 -0 0 0 0 0 0 -0 -0 -0 -0 -0 -0 0 0 0 0 0 0 -0 -0 -0 -0 -0 -0 -0 0 -0 0 0 0 0 0 0 0 0 0 0 0 0 0 0 0 0
-0 -0 -0 -0 0 0 0 0 -0 0 0 0 0 0 0 0 0 0 -0 -0 -0 -0 -0 -0 -0 -0 -0 -0 -0 -0 0 0 0 0 0 0 0 0 0 0 0 0 0 0
0 0 0 0 -0 0 0 0 -0 -0 0 0 0 0 0 0 0 0 0 0 0 -0 -0 -0 0 0 0 0 -0 -0 -0 -0 0 0 0 0 0 0 0 0 0 0 0 0
0 0 0 0 0 0 0 0 0 -0 -0 -0 0 0 0 0 0 0 0 0 0 0 -0 -0 -0 -0 -0 0 0 -0 -0 -0 -0 -0 -0 -0 0 0 0 0 0 0 0 0
0 0 0 0 0 0 0 0 0 0 0 0 -0 -0 -0 0 0 -0 -0 -0 0 -0 -0 -0 -0 -0 -0 -0 -0 0 0 0 0 0 0 -0 -0 -0 0 0 0 0 0 0
0 0 0 0 0 0 0 0 0 0 0 0 0 0 0 -0 -0 -0 -0 -0 -0 -0 -0 0 0 0 0 -0 0 0 0 0 0 0 0 0 0 0 0 0 0 0 0 0
0 0 0 0 0 0 0 0 0 0 0 0 0 0 0 0 0 0 -0 -0 -0 -0 0 -0 -0 -0 0 0 0 0 0 0 0 0 0 0 0 0 0 0 0 0 0 0
0 0 0 0 0 0 0 0 0 0 0 0 0 0 0 0 0 0 0 0 0 0 -0 -0 -0 -0 -0 -0 -0 -0 -0 0 0 0 0 0 0 0 0 0 0 0 0 0
0 0 0 0 0 0 0 0 0 0 0 0 0 0 0 0 0 0 0 0 0 0 0 0 0 -0 -0 -0 -0 -0 -0 -0 -0 -0 0 0 0 0 0 0 0 0 0 0
0 0 0 0 0 0 0 0 0 0 0 0 0 0 0 0 0 0 0 0 0 0 0 0 0 0 0 0 -0 -0 -0 -0 -0 -0 -0 -0 0 0 0 0 0 0 0 0
0 0 0 0 0 0 0 0 0 0 0 0 0 0 0 0 0 0 0 0 0 0 0 0 0 0 0 0 0 0 0 0 -0 -0 -0 0 -0 0 0 0 0 0 0 0
0 0 0 0 0 0 0 0 0 0 0 0 0 0 0 0 0 0 0 0 0 0 0 0 0 0 0 0 0 0 0 0 0 0 0 0 0 0 -0 0 0 0 0 0
0 0 0 0 0 0 0 0 0 0 0 0 0 0 0 0 0 0 0 0 0 0 0 0 0 0 0 0 0 0 0 0 0 0 0 0 0 0 0 0 0 0 0 0
0 0 0 0 0 0 0 0 0 0 0 0 0 0 0 0 0 0 0 0 0 0 0 0 0 0 0 0 0 0 0 0 0 0 0 0 0 0 0 0 0 0 0 0
0 0 0 0 0 0 0 0 0 0 0 0 0 0 0 0 0 0 0 0 0 0 0 0 0 0 0 0 0 0 0 0 0 0 0 0 0 0 0 0 0 0 0 0
0 0 0 0 0 0 0 0 0 0 0 0 0 0 0 0 0 0 0 0 0 0 0 0 0 0 0 0 0 0 0 0 0 0 0 0 0 0 0 0 0 0 0 0
Wind_Speed_500mb
41 41 55 52 52 51 50 36 23 26 25 43 43 36 40 51 56 57 56 54 50 54 52 42 32 19 41 54 57 60 71 83 96 97 96 102 101 82 85 84 81 78 94 100
10 7 47 58 49 53 51 47 34 28 27 48 49 36 47 54 58 59 59 59 52 50 51 45 31 14 30 37 54 55 57 82 85 91 92 99 101 99 85 70 78 88 92 103
8 19 13 31 51 41 43 44 40 31 39 50 39 48 51 61 61 56 60 57 53 53 55 40 29 15 23 39 41 52 56 61 79 81 86 89 91 94 83 64 73 81 101 103
10 6 23 23 35 19 27 41 45 41 44 51 52 37 33 61 63 62 70 62 54 56 51 34 25 11 9 30 48 54 57 58 70 77 89 91 94 97 91 73 76 85 101 106
9 25 10 48 41 18 18 33 42 40 47 46 60 31 51 86 85 76 79 60 52 52 46 38 28 13 3 22 46 40 46 55 61 79 84 85 86 104 93 76 91 94 106 109
24 14 18 26 40 31 14 26 60 55 52 59 60 31 29 86 84 79 74 63 52 56 56 42 36 29 14 8 22 34 42 51 55 69 69 76 83 80 76 79 95 95 104 92
20 13 11 27 45 38 27 20 53 46 43 50 35 37 58 69 74 74 71 69 61 67 80 73 54 50 41 23 6 15 27 43 54 65 69 67 70 73 86 83 76 89 106 88
13 13 14 38 20 17 17 32 42 45 43 38 39 46 52 61 65 70 84 81 84 92 95 87 79 72 63 53 35 14 15 33 42 55 64 69 71 61 72 80 91 96 78 80
14 9 7 15 12 22 26 32 41 42 43 42 42 45 47 55 63 67 74 92 97 100 98 95 95 87 77 65 56 42 16 16 37 54 65 64 68 70 78 89 97 76 78 85
3 6 8 16 22 26 32 35 38 38 39 44 48 54 55 61 71 79 87 89 98 97 95 98 97 94 85 72 71 65 54 36 18 14 26 50 63 75 86 93 92 92 90 88
14 14 5 26 26 26 30 34 40 41 41 46 48 52 53 58 62 64 70 75 81 90 87 90 91 94 94 86 71 68 70 67 52 34 20 6 17 39 53 62 72 82 90 91
8 13 10 21 22 23 27 33 37 40 42 43 46 48 49 54 57 60 63 65 79 78 81 77 84 87 91 88 86 77 62 61 53 56 43 36 26 6 13 25 39 41 48 66
9 10 14 19 21 21 21 24 29 36 40 42 43 46 48 49 51 54 57 62 64 68 73 80 82 83 83 85 83 83 82 72 69 60 54 44 42 39 36 27 17 16 20 32
9 9 16 19 21 25 23 22 23 27 33 40 44 46 44 45 50 55 59 55 56 63 69 69 78 85 80 77 76 80 76 74 73 69 60 56 59 57 55 52 46 38 37 33
3 8 12 15 16 21 23 24 23 27 29 34 37 41 42 43 47 48 49 54 55 59 66 68 73 76 77 75 71 73 75 74 69 67 64 63 61 59 54 45 39 35 29 23
4 2 6 14 16 16 18 20 20 23 25 29 35 40 39 37 39 43 50 51 59 61 61 64 64 66 69 69 68 69 69 65 65 65 61 61 60 58 58 59 58 57 49 36
5 3 7 12 11 14 17 15 19 18 17 20 26 30 35 36 35 42 50 52 48 52 53 58 59 59 61 58 60 58 58 60 61 60 62 60 59 60 60 58 56 55 52 46
4 4 5 8 10 11 14 15 21 19 18 24 23 23 28 35 41 45 52 54 48 48 54 54 56 55 56 56 52 50 51 52 52 53 51 50 52 51 51 52 52 51 49 45
12 7 5 5 8 10 13 13 15 16 17 17 15 20 24 36 41 45 40 54 52 49 51 50 54 50 52 51 48 46 45 46 44 45 44 45 44 43 43 42 43 43 43 44
18 13 10 7 11 10 11 14 16 13 15 15 15 18 23 31 39 38 32 34 45 46 45 50 49 46 49 49 51 45 41 40 40 38 42 38 40 41 38 39 37 34 34 35
22 18 15 12 9 11 9 12 16 17 18 15 15 19 24 26 32 34 34 30 45 48 47 48 48 49 45 43 40 42 39 37 38 38 37 38 38 35 35 35 36 35 34 32
24 22 19 15 14 11 11 9 10 15 20 21 19 19 22 20 27 26 34 39 39 43 42 41 46 45 43 41 39 36 35 35 36 36 36 34 33 34 37 36 35 34 32 31
24 23 20 20 19 16 15 15 13 13 15 20 23 21 17 19 22 22 20 34 35 36 36 37 38 41 40 38 37 35 33 32 32 33 33 33 33 33 33 33 31 31 31 30
27 25 22 22 22 23 22 19 20 20 19 21 23 24 22 17 21 24 27 31 32 32 32 34 36 38 38 36 36 34 32 31 29 28 28 28 28 28 28 28 28 28 28 28
27 27 27 25 25 23 21 22 25 30 30 30 30 29 27 25 22 23 24 25 26 28 27 30 31 32 32 31 30 30 29 28 26 24 24 24 24 25 25 24 24 23 23 24
33 33 30 29 27 25 25 26 29 28 28 27 29 34 33 31 29 26 24 22 22 23 24 26 26 26 26 26 26 27 26 26 26 24 22 21 22 22 22 21 21 21 21 21
39 39 40 40 40 38 37 37 36 38 36 39 37 34 38 35 33 31 29 27 23 21 21 22 23 24 24 24 23 23 23 24 24 24 22 20 19 19 20 19 20 19 19 19
Wind_Direction_500mb
102 75 48 57 50 45 42 25 29 1 359 354 342 339 356 349 343 340 338 335 336 331 327 317 308 244 232 224 218 220 222 223 224 221 219 228 227 225 235 240 234 234 230 234
225 314 58 41 43 40 33 21 20 12 10 348 347 354 6 354 351 345 339 336 334 331 329 323 320 289 210 221 220 217 219 223 222 222 219 225 227 232 232 243 241 235 230 234
81 350 68 27 9 40 28 18 13 18 348 351 356 353 9 358 352 345 342 340 336 337 335 329 329 321 224 215 216 218 226 225 227 226 224 225 228 222 235 251 251 237 233 235
359 260 52 350 10 28 29 13 7 6 359 356 350 340 354 359 355 351 350 345 349 349 346 350 350 337 243 223 224 220 221 222 225 229 230 238 234 228 238 249 260 245 233 220
64 70 83 16 2 351 53 23 4 356 353 351 351 352 11 359 358 358 357 359 5 3 2 7 12 18 276 214 226 214 223 227 233 228 232 236 241 237 238 251 257 242 228 223
57 57 42 348 336 359 215 26 359 354 352 350 352 17 355 349 357 10 6 14 12 20 28 36 42 45 44 142 197 215 212 217 222 233 242 245 246 241 240 249 254 241 226 220
60 73 67 355 341 329 45 337 338 354 357 355 5 355 338 352 7 12 6 4 24 31 37 41 45 52 53 55 75 219 217 222 224 232 239 250 250 250 246 250 244 241 231 228
37 50 43 353 356 35 320 332 357 359 5 1 359 352 356 0 5 5 17 16 30 42 41 41 41 47 47 49 43 26 260 240 243 238 241 246 247 251 248 255 246 230 233 235
25 74 306 348 316 360 1 6 8 6 6 9 7 3 359 0 7 11 12 30 40 43 42 40 40 39 43 42 47 40 12 280 262 255 241 242 247 258 257 256 241 238 238 239
172 30 351 350 11 15 13 13 13 15 12 16 12 11 10 7 11 14 21 22 33 40 40 37 38 41 42 44 52 51 52 53 47 277 241 246 252 257 246 241 240 239 232 235
89 33 76 23 11 5 9 15 15 16 18 19 19 16 12 14 16 16 18 20 27 32 30 34 38 39 41 43 49 54 54 51 50 57 62 89 255 247 236 234 234 234 232 227
58 23 356 9 10 6 10 10 11 14 17 18 19 18 18 18 19 16 17 19 27 30 29 28 33 42 42 41 45 50 53 52 42 44 53 65 80 80 242 259 251 236 232 237
36 16 10 9 17 16 17 11 9 11 15 16 16 18 19 18 18 18 20 21 20 23 29 29 29 35 39 39 42 47 50 50 53 57 59 61 67 72 86 114 137 160 177 183
33 21 24 13 11 9 10 7 10 14 17 17 14 14 15 17 19 21 21 17 19 25 28 27 29 31 34 33 39 42 49 53 53 51 51 56 63 70 73 72 72 66 65 71
52 28 4 355 2 357 358 0 9 11 13 17 17 17 15 15 16 16 16 19 21 25 29 28 29 28 32 34 33 39 42 48 49 53 56 54 54 57 62 66 69 72 78 76
166 4 1 6 8 352 353 358 6 9 7 10 12 15 15 15 14 15 16 18 20 21 22 24 26 25 27 31 33 36 38 42 49 49 51 51 53 53 55 56 58 62 63 61
165 51 22 16 357 350 356 357 358 358 7 6 13 9 11 14 16 19 19 18 17 17 20 22 23 23 26 30 29 30 32 36 41 44 48 50 52 53 53 53 54 56 57 58
222 319 345 4 5 356 354 350 348 347 353 359 4 4 9 13 14 16 18 18 19 18 20 20 25 26 23 24 30 29 27 30 32 37 42 45 49 51 52 52 52 51 52 53
231 265 277 330 351 354 353 346 343 342 345 351 354 0 0 10 14 15 11 17 18 15 19 21 24 18 22 25 30 26 24 26 28 30 33 35 38 38 43 47 48 47 45 46
233 243 242 261 347 349 349 352 355 345 344 347 349 354 4 6 11 14 10 6 15 16 19 21 22 21 17 18 24 26 23 20 24 25 29 30 32 33 33 33 36 39 41 41
228 233 236 249 279 330 323 345 0 3 1 355 352 354 3 3 6 10 13 10 9 11 19 17 16 17 18 23 18 19 20 22 25 26 26 25 26 26 27 29 29 31 31 33
226 228 231 248 268 283 300 307 336 353 1 2 354 349 351 351 356 359 6 10 9 11 16 12 12 14 15 22 19 22 19 19 24 27 27 28 27 24 25 27 27 27 29 29
219 225 234 254 268 266 279 283 294 318 334 346 352 346 337 334 344 352 353 359 7 7 12 10 9 12 14 19 20 20 21 23 24 24 25 28 29 31 30 29 29 31 31 34
219 224 238 258 263 269 272 266 278 293 306 313 324 337 333 322 321 338 345 356 1 0 6 4 5 7 13 16 20 23 23 22 21 22 24 27 31 32 32 34 34 31 32 37
226 239 255 258 257 260 258 258 268 283 290 295 296 308 321 321 312 310 325 337 348 353 351 356 359 1 6 9 10 15 19 21 22 23 24 23 26 25 31 31 33 38 35 38
242 250 254 256 253 252 257 261 269 273 271 271 276 284 294 308 309 307 308 318 329 337 339 342 349 354 359 2 3 7 9 14 18 21 23 22 23 25 28 31 32 34 37 41
249 250 253 256 259 265 270 274 273 279 279 284 280 271 281 289 299 302 301 301 308 316 320 326 334 342 345 350 355 359 2 5 10 13 17 21 21 21 25 33 38 38 41 46
Wind_Speed_850mb
41 41 55 52 52 51 50 36 23 26 25 43 43 36 40 51 56 57 56 54 50 54 52 42 32 19 41 54 57 60 71 83 96 97 96 102 101 82 85 84 81 78 94 100
10 7 47 58 49 53 51 47 34 28 27 48 49 36 47 54 58 59 59 59 52 50 51 45 31 14 30 37 54 55 57 82 85 91 92 99 101 99 85 70 78 88 92 103
8 19 13 31 51 41 43 44 40 31 39 50 39 48 51 61 61 56 60 57 53 53 55 40 29 15 23 39 41 52 56 61 79 81 86 89 91 94 83 64 73 81 101 103
10 6 23 23 35 19 27 41 45 41 44 51 52 37 33 61 63 62 70 62 54 56 51 34 25 11 9 30 48 54 57 58 70 77 89 91 94 97 91 73 76 85 101 106
9 25 10 48 41 18 18 33 42 40 47 46 60 31 51 86 85 76 79 60 52 52 46 38 28 13 3 22 46 40 46 55 61 79 84 85 86 104 93 76 91 94 106 109
24 14 18 26 40 31 14 26 60 55 52 59 60 31 29 86 84 79 74 63 52 56 56 42 36 29 14 8 22 34 42 51 55 69 69 76 83 80 76 79 95 95 104 92
20 13 11 27 45 38 27 20 53 46 43 50 35 37 58 69 74 74 71 69 61 67 80 73 54 50 41 23 6 15 27 43 54 65 69 67 70 73 86 83 76 89 106 88
13 13 14 38 20 17 17 32 42 45 43 38 39 46 52 61 65 70 84 81 84 92 95 87 79 72 63 53 35 14 15 33 42 55 64 69 71 61 72 80 91 96 78 80
14 9 7 15 12 22 26 32 41 42 43 42 42 45 47 55 63 67 74 92 97 100 98 95 95 87 77 65 56 42 16 16 37 54 65 64 68 70 78 89 97 76 78 85
3 6 8 16 22 26 32 35 38 38 39 44 48 54 55 61 71 79 87 89 98 97 95 98 97 94 85 72 71 65 54 36 18 14 26 50 63 75 86 93 92 92 90 88
14 14 5 26 26 26 30 34 40 41 41 46 48 52 53 58 62 64 70 75 81 90 87 90 91 94 94 86 71 68 70 67 52 34 20 6 17 39 53 62 72 82 90 91
8 13 10 21 22 23 27 33 37 40 42 43 46 48 49 54 57 60 63 65 79 78 81 77 84 87 91 88 86 77 62 61 53 56 43 36 26 6 13 25 39 41 48 66
9 10 14 19 21 21 21 24 29 36 40 42 43 46 48 49 51 54 57 62 64 68 73 80 82 83 83 85 83 83 82 72 69 60 54 44 42 39 36 27 17 16 20 32
9 9 16 19 21 25 23 22 23 27 33 40 44 46 44 45 50 55 59 55 56 63 69 69 78 85 80 77 76 80 76 74 73 69 60 56 59 57 55 52 46 38 37 33
3 8 12 15 16 21 23 24 23 27 29 34 37 41 42 43 47 48 49 54 55 59 66 68 73 76 77 75 71 73 75 74 69 67 64 63 61 59 54 45 39 35 29 23
4 2 6 14 16 16 18 20 20 23 25 29 35 40 39 37 39 43 50 51 59 61 61 64 64 66 69 69 68 69 69 65 65 65 61 61 60 58 58 59 58 57 49 36
5 3 7 12 11 14 17 15 19 18 17 20 26 30 35 36 35 42 50 52 48 52 53 58 59 59 61 58 60 58 58 60 61 60 62 60 59 60 60 58 56 55 52 46
4 4 5 8 10 11 14 15 21 19 18 24 23 23 28 35 41 45 52 54 48 48 54 54 56 55 56 56 52 50 51 52 52 53 51 50 52 51 51 52 52 51 49 45
12 7 5 5 8 10 13 13 15 16 17 17 15 20 24 36 41 45 40 54 52 49 51 50 54 50 52 51 48 46 45 46 44 45 44 45 44 43 43 42 43 43 43 44
18 13 10 7 11 10 11 14 16 13 15 15 15 18 23 31 39 38 32 34 45 46 45 50 49 46 49 49 51 45 41 40 40 38 42 38 40 41 38 39 37 34 34 35
22 18 15 12 9 11 9 12 16 17 18 15 15 19 24 26 32 34 34 30 45 48 47 48 48 49 45 43 40 42 39 37 38 38 37 38 38 35 35 35 36 35 34 32
24 22 19 15 14 11 11 9 10 15 20 21 19 19 22 20 27 26 34 39 39 43 42 41 46 45 43 41 39 36 35 35 36 36 36 34 33 34 37 36 35 34 32 31
24 23 20 20 19 16 15 15 13 13 15 20 23 21 17 19 22 22 20 34 35 36 36 37 38 41 40 38 37 35 33 32 32 33 33 33 33 33 33 33 31 31 31 30
27 25 22 22 22 23 22 19 20 20 19 21 23 24 22 17 21 24 27 31 32 32 32 34 36 38 38 36 36 34 32 31 29 28 28 28 28 28 28 28 28 28 28 28
27 27 27 25 25 23 21 22 25 30 30 30 30 29 27 25 22 23 24 25 26 28 27 30 31 32 32 31 30 30 29 28 26 24 24 24 24 25 25 24 24 23 23 24
33 33 30 29 27 25 25 26 29 28 28 27 29 34 33 31 29 26 24 22 22 23 24 26 26 26 26 26 26 27 26 26 26 24 22 21 22 22 22 21 21 21 21 21
39 39 40 40 40 38 37 37 36 38 36 39 37 34 38 35 33 31 29 27 23 21 21 22 23 24 24 24 23 23 23 24 24 24 22 20 19 19 20 19 20 19 19 19
Wind_Direction_850mb
102 75 48 57 50 45 42 25 29 1 359 354 342 339 356 349 343 340 338 335 336 331 327 317 308 244 232 224 218 220 222 223 224 221 219 228 227 225 235 240 234 234 230 234
225 314 58 41 43 40 33 21 20 12 10 348 347 354 6 354 351 345 339 336 334 331 329 323 320 289 210 221 220 217 219 223 222 222 219 225 227 232 232 243 241 235 230 234
81 350 68 27 9 40 28 18 13 18 348 351 356 353 9 358 352 345 342 340 336 337 335 329 329 321 224 215 216 218 226 225 227 226 224 225 228 222 235 251 251 237 233 235
359 260 52 350 10 28 29 13 7 6 359 356 350 340 354 359 355 351 350 345 349 349 346 350 350 337 243 223 224 220 221 222 225 229 230 238 234 228 238 249 260 245 233 220
64 70 83 16 2 351 53 23 4 356 353 351 351 352 11 359 358 358 357 359 5 3 2 7 12 18 276 214 226 214 223 227 233 228 232 236 241 237 238 251 257 242 228 223
57 57 42 348 336 359 215 26 359 354 352 350 352 17 355 349 357 10 6 14 12 20 28 36 42 45 44 142 197 215 212 217 222 233 242 245 246 241 240 249 254 241 226 220
60 73 67 355 341 329 45 337 338 354 357 355 5 355 338 352 7 12 6 4 24 31 37 41 45 52 53 55 75 219 217 222 224 232 239 250 250 250 246 250 244 241 231 228
37 50 43 353 356 35 320 332 357 359 5 1 359 352 356 0 5 5 17 16 30 42 41 41 41 47 47 49 43 26 260 240 243 238 241 246 247 251 248 255 246 230 233 235
25 74 306 348 316 360 1 6 8 6 6 9 7 3 359 0 7 11 12 30 40 43 42 40 40 39 43 42 47 40 12 280 262 255 241 242 247 258 257 256 241 238 238 239
172 30 351 350 11 15 13 13 13 15 12 16 12 11 10 7 11 14 21 22 33 40 40 37 38 41 42 44 52 51 52 53 47 277 241 246 252 257 246 241 240 239 232 235
89 33 76 23 11 5 9 15 15 16 18 19 19 16 12 14 16 16 18 20 27 32 30 34 38 39 41 43 49 54 54 51 50 57 62 89 255 247 236 234 234 234 232 227
58 23 356 9 10 6 10 10 11 14 17 18 19 18 18 18 19 16 17 19 27 30 29 28 33 42 42 41 45 50 53 52 42 44 53 65 80 80 242 259 251 236 232 237
36 16 10 9 17 16 17 11 9 11 15 16 16 18 19 18 18 18 20 21 20 23 29 29 29 35 39 39 42 47 50 50 53 57 59 61 67 72 86 114 137 160 177 183
33 21 24 13 11 9 10 7 10 14 17 17 14 14 15 17 19 21 21 17 19 25 28 27 29 31 34 33 39 42 49 53 53 51 51 56 63 70 73 72 72 66 65 71
52 28 4 355 2 357 358 0 9 11 13 17 17 17 15 15 16 16 16 19 21 25 29 28 29 28 32 34 33 39 42 48 49 53 56 54 54 57 62 66 69 72 78 76
166 4 1 6 8 352 353 358 6 9 7 10 12 15 15 15 14 15 16 18 20 21 22 24 26 25 27 31 33 36 38 42 49 49 51 51 53 53 55 56 58 62 63 61
165 51 22 16 357 350 356 357 358 358 7 6 13 9 11 14 16 19 19 18 17 17 20 22 23 23 26 30 29 30 32 36 41 44 48 50 52 53 53 53 54 56 57 58
222 319 345 4 5 356 354 350 348 347 353 359 4 4 9 13 14 16 18 18 19 18 20 20 25 26 23 24 30 29 27 30 32 37 42 45 49 51 52 52 52 51 52 53
231 265 277 330 351 354 353 346 343 342 345 351 354 0 0 10 14 15 11 17 18 15 19 21 24 18 22 25 30 26 24 26 28 30 33 35 38 38 43 47 48 47 45 46
233 243 242 261 347 349 349 352 355 345 344 347 349 354 4 6 11 14 10 6 15 16 19 21 22 21 17 18 24 26 23 20 24 25 29 30 32 33 33 33 36 39 41 41
228 233 236 249 279 330 323 345 0 3 1 355 352 354 3 3 6 10 13 10 9 11 19 17 16 17 18 23 18 19 20 22 25 26 26 25 26 26 27 29 29 31 31 33
226 228 231 248 268 283 300 307 336 353 1 2 354 349 351 351 356 359 6 10 9 11 16 12 12 14 15 22 19 22 19 19 24 27 27 28 27 24 25 27 27 27 29 29
219 225 234 254 268 266 279 283 294 318 334 346 352 346 337 334 344 352 353 359 7 7 12 10 9 12 14 19 20 20 21 23 24 24 25 28 29 31 30 29 29 31 31 34
219 224 238 258 263 269 272 266 278 293 306 313 324 337 333 322 321 338 345 356 1 0 6 4 5 7 13 16 20 23 23 22 21 22 24 27 31 32 32 34 34 31 32 37
226 239 255 258 257 260 258 258 268 283 290 295 296 308 321 321 312 310 325 337 348 353 351 356 359 1 6 9 10 15 19 21 22 23 24 23 26 25 31 31 33 38 35 38
242 250 254 256 253 252 257 261 269 273 271 271 276 284 294 308 309 307 308 318 329 337 339 342 349 354 359 2 3 7 9 14 18 21 23 22 23 25 28 31 32 34 37 41
249 250 253 256 259 265 270 274 273 279 279 284 280 271 281 289 299 302 301 301 308 316 320 326 334 342 345 350 355 359 2 5 10 13 17 21 21 21 25 33 38 38 41 46